Tracking 19792 objects as of 16-Jul-2019
HD Live streaming from Space Station
objects crossing your sky now

CBERS 1 DEB

Track CBERS 1 DEB now!
10-day predictions


NORAD ID: 32080
Int'l Code: 1999-057QU
Perigee: 502.0 km
Apogee: 507.7 km
Inclination: 98.2 °
Period: 94.6 minutes
Semi major axis: 6875 km
RCS: 0.0156 m2 (small)
Launch date: October 14, 1999
Source: China/Brazil (CHBZ)
Launch site: Taiyaun Space Center, China (TSC)

Note: This is SATELLITE DEBRIS
aabbcc
Your satellite tracking list
Your tracking list is empty




NASA's NSSDC Master Catalog

Two Line Element Set (TLE):
1 32080U 99057QU  19196.49970559  .00013302  00000-0  57357-3 0  9996
2 32080  98.2236 294.0370 0004112 251.3421 108.7367 15.22698745644753
Source of the keplerian elements: AFSPC